User: anonymous
Location: Mason Neck State Park
(38.6428°N, 77.1981°W)
Time: 04:44:13
(UTC-04:00)
Language:

Cosmos 1400 Rocket - Orbit

View from above orbital plane
View from above orbital plane
View from above satellite
View from above satellite

Ground track
Ground track

The orbit data is extracted from the following two-line orbital elements,

1 13403U 82079B   14292.73855649  .00002924  00000-0  20779-3 0  6983
2 13403 081.1679 300.5836 0034918 233.5725 126.2277 15.03927835750532
Epoch (UTC): 19 October 2014 17:43:31
Eccentricity: 0.0034918
inclination: 81.1679°
perigee height: 530 km
apogee height: 579 km
right ascension of ascending node: 300.5836°
argument of perigee: 233.5725°
revolutions per day: 15.03927835
mean anomaly at epoch: 126.2277°
orbit number at epoch: 75053

The dashed part of the orbit path shows where the satellite is in the earth's shadow,  

DLR